Terminal Aerodrome Forecast
Issued by NWS Twin Cities, MN

Home | Current Version | Previous Version | Text Only | Print | Product List | Glossary Off
Versions: 1 2 3 4 5 6 7 8 9 10 11 12 13 14 15 16 17 18 19 20 21 22 23 24 25 26 27 28

000
FTUS43 KMPX 230500
TAFMSP
TAF
KMSP 230526Z 2306/2412 09006KT P6SM SCT100 BKN200
     FM231000 12009KT P6SM SCT050 BKN070
     FM231400 14014G21KT 6SM -RA BR SCT025 OVC050
     FM240000 13013G18KT 4SM -RA BR BKN025
      TEMPO 2402/2406 2SM -RA BR
     FM240600 12012KT 5SM -RA BR BKN020=

USA.gov is the U.S. government's official web portal to all federal, state and local government web resources and services.